User: anonymous   Login
Location: Irma
(52.9170°N, 111.2330°W)
Time: 21:05:15
(UTC-06:00)
Language:

Meteor 1-24 Rocket - Orbit

View from above orbital plane
View from above orbital plane
View from above satellite
View from above satellite

Ground track
Ground track

The orbit data is extracted from the following two-line orbital elements,

1 08800U 76032B   15108.51911725  .00000081  00000-0  37775-4 0  9992
2 08800 081.2495 266.4663 0093744 263.9986 095.0495 14.10020884  6758
Epoch (UTC): 18 April 2015 12:27:31
Eccentricity: 0.0093744
inclination: 81.2495°
perigee height: 791 km
apogee height: 927 km
right ascension of ascending node: 266.4663°
argument of perigee: 263.9986°
revolutions per day: 14.10020884
mean anomaly at epoch: 95.0495°
orbit number at epoch: 675

The dashed part of the orbit path shows where the satellite is in the earth's shadow,  

DLR